Location: Erba
(45.8000°N, 9.2500°E)
Time: 12:07:26
(UTC+02:00)

ISS - Pass Details

Date: 05 July 2020
Orbit: 417 x 420 km, 51.6° (Epoch: 02 July)

Event Time Altitude Azimuth Distance (km) Brightness Sun altitude
Exits shadow 04:09:37 11° 266° (W) 1,417 -1.5 -12.2°
Maximum altitude 04:12:40 46° 340° (NNW) 568 -2.9 -11.9°
Drops below altitude 10° 04:15:56 10° 56° (NE) 1,497 0.4 -11.5°
Sets 04:18:05 0° 63° (ENE) 2,362 1.4 -11.3°
